Location: �perlecques
(50.8057°N, 2.1521°E)
Time: 04:45:26
(UTC+00:00)

ISS - Visible Passes

Search period start: 28 November 2022 00:00
Search period end: 08 December 2022 00:00
Orbit: 411 x 420 km, 51.6° (Epoch: 28 November)

Date Brightness Start Highest point End Pass type
(mag) Time Alt. Az. Time Alt. Az. Time Alt. Az.
28 Nov -3.8 17:38:22 10° W 17:41:43 75° N 17:42:30 49° ENE visible
28 Nov -0.3 19:15:09 10° W 19:15:23 12° W 19:15:23 12° W visible
29 Nov -3.8 16:49:40 10° W 16:53:00 75° N 16:55:47 14° E visible
29 Nov -2.4 18:26:27 10° WNW 18:28:40 38° W 18:28:40 38° W visible
30 Nov -3.9 17:37:44 10° WNW 17:41:05 89° SSW 17:41:59 45° ESE visible
30 Nov -0.3 19:14:37 10° W 19:14:52 12° W 19:14:52 12° W visible
01 Dec -3.8 16:48:59 10° W 16:52:20 80° N 16:55:21 12° E visible
01 Dec -2.3 18:25:47 10° W 18:28:15 36° WSW 18:28:15 36° WSW visible
02 Dec -3.3 17:36:58 10° WNW 17:40:15 58° SSW 17:41:41 29° SE visible
02 Dec -0.2 19:14:27 10° WSW 19:14:35 10° WSW 19:14:35 10° WSW visible
03 Dec -3.6 16:48:09 10° WNW 16:51:30 76° SSW 16:54:50 10° ESE visible
03 Dec -1.6 18:25:13 10° W 18:27:52 22° SW 18:28:08 22° SSW visible
04 Dec -2.1 17:36:11 10° W 17:39:12 32° SSW 17:41:52 12° SSE visible
05 Dec -2.7 16:47:16 10° W 16:50:28 45° SSW 16:53:39 10° SE visible
05 Dec -0.6 18:25:40 10° WSW 18:26:31 11° SW 18:27:24 10° SSW visible
06 Dec -0.8 17:35:43 10° W 17:37:54 16° SW 17:40:04 10° S visible
07 Dec -1.3 16:46:26 10° W 16:49:11 24° SW 16:51:55 10° SSE visible
